Miscellaneous Local Product
Issued by NWS Hastings, NE

Home | Current Version | Previous Version | Graphics & Text | Print | Product List | Glossary On
Versions: 1 2 3 4 5 6 7 8 9 10 11 12 13 14 15 16 17 18 19 20 21 22 23 24 25 26 27 28 29 30 31 32 33 34 35 36 37 38 39 40 41 42 43 44 45 46 47 48 49 50
000
AXUS43 KGID 210902
MISGRI

GID CWA HOURLY WEATHER ROUNDUP
NATIONAL WEATHER SERVICE HASTINGS NE
300 AM CST SUN DEC 21 2014

NOTE: "FAIR" INDICATES FEW OR NO CLOUDS BELOW 12,000 FEET WITH NO
SIGNIFICANT WEATHER AND/OR OBSTRUCTIONS TO VISIBILITY.

...SOUTH CENTRAL NEBRASKA...

CITY           SKY/WX    TMP DP  RH WIND       PRES   REMARKS
GRAND ISLAND   FOG       25  25 100 S5        29.89F VSB 1/4 WCI  19
HASTINGS       PTCLDY    32  30  92 S6        29.89F WCI  26
KEARNEY        MOCLDY    30  27  86 SW7       29.88F WCI  23
ORD            FOG       20  17  88 SW3       29.86F VSB 1
YORK           CLOUDY    32  32 100 S7        29.91F FOG     WCI  26
AURORA         FOG       31  31 100 S3        29.90F VSB 1/4
LEXINGTON      MOCLDY    29  27  93 W5        29.88S WCI  24
HOLDREGE       PTCLDY    32  30  92 SW3       29.89S
HEBRON         MOCLDY    35  33  92 S6        29.97R FOG     WCI  30

...NEBRASKA PANHANDLE...

CITY           SKY/WX    TMP DP  RH WIND       PRES   REMARKS
CHADRON        CLEAR     25  22  88 SW5       29.76F WCI  19
ALLIANCE       CLEAR     30  24  78 SW13      29.80S WCI  20
SCOTTSBLUFF    CLEAR     24  19  81 CALM      29.81F
SIDNEY         CLOUDY    32  26  78 W3        29.86F

...WESTERN AND NORTH CENTRAL NEBRASKA...

CITY           SKY/WX    TMP DP  RH WIND       PRES   REMARKS
VALENTINE      CLOUDY    27  23  85 CALM      29.80F
AINSWORTH      CLOUDY    29  25  83 SW6       29.81F WCI  23
ONEILL         FOG       27  27 100 S6        29.86R VSB 1/2 WCI  20
BROKEN BOW     PTCLDY    29  25  85 CALM      29.85F
IMPERIAL       CLOUDY    35  26  69 W7        29.86F WCI  29
NORTH PLATTE   MOCLDY    25  23  92 W3        29.87F
MCCOOK         CLOUDY    30  26  85 SW8       29.88F WCI  22

...EASTERN NEBRASKA...

CITY           SKY/WX    TMP DP  RH WIND       PRES   REMARKS
NORFOLK        FOG       33  33 100 S10       29.88F VSB 3/4 WCI  25
SO SIOUX CITY  FOG       34  33  96 SE8       29.93F VSB 1/2 WCI  27
TEKAMAH        CLOUDY    35  34  96 SE10      29.94F FOG     WCI  27
COLUMBUS       CLOUDY    36  32  87 S9        29.91F VSB 1/2 WCI  29
ALBION         FOG       31  30  95 S8        29.88F VSB 1/2 WCI  24
OMAHA EPPLEY   CLOUDY    36  35  96 S12       29.99S FOG     WCI  28
OFFUTT AFB     CLOUDY    35  33  96 SE5       29.97F FOG     WCI  30
MILLARD        CLOUDY    37  35  94 S9        29.98S FOG     WCI  30
LINCOLN        CLOUDY    37  35  92 S9        29.96F WCI  30
NEBRASKA CITY  MOCLDY    33  33 100 S10       30.00S FOG     WCI  25
BEATRICE       CLOUDY    37  36  95 S13       29.99R WCI  29
FALLS CITY     CLOUDY    35  33  92 S8        30.03F WCI  29

...NORTHERN KANSAS...

CITY           SKY/WX    TMP DP  RH WIND       PRES   REMARKS
GOODLAND       CLOUDY    32  28  85 W3        29.87F
HILL CITY      PTCLDY    31  29  92 SW3       29.93F FOG
NORTON         MOSUNNY   34  30  86 SW5       29.89F WCI  30
PHILLIPSBURG   CLEAR     37  37 100 CALM      29.93S
SMITH CENTER   CLEAR     32  32 100 S3        29.94S FOG
BELOIT         CLEAR     36  36 100 S7        29.97F WCI  30
HAYS           MOCLDY    28  21  74 CALM      29.97R VSB 3/4
RUSSELL        PTCLDY    33  32  96 SW9       29.95S WCI  25
CONCORDIA      MOCLDY    36  36 100 S12       29.97S WCI  28
SALINA         PTCLDY    36  33  89 S8        30.00F WCI  30
TOPEKA         CLOUDY   N/A N/A N/A S7        30.08F



USA.gov is the U.S. government's official web portal to all federal, state and local government web resources and services.